Location: Gull Harbor
(47.1000°N, 122.9000°W)
Time: 21:48:07
(UTC-08:00)

Envisat - Pass Details

Date: 29 October 2019
Orbit: 764 x 766 km, 98.1° (Epoch: 16 November)

Event Time Altitude Azimuth Distance (km) Brightness Sun altitude
Rises 19:56:19 0° 191° (S) 3,220 6.3 -20.3°
Reaches altitude 10° 19:58:49 10° 200° (SSW) 2,298 5.7 -20.7°
Maximum altitude 20:03:22 33° 265° (W) 1,267 4.7 -21.5°
Drops below altitude 10° 20:07:58 10° 329° (NNW) 2,313 5.9 -22.3°
Sets 20:10:30 0° 339° (NNW) 3,244 6.6 -22.7°
